Regional Weather Roundup
Issued by NWS Sterling, VA

Home | Current Version | Previous Version | Graphics & Text | Print | Product List | Glossary On
Versions: 1 2 3 4 5 6 7 8 9 10 11 12 13 14 15 16 17 18 19 20 21 22 23 24 25 26 27 28 29 30 31 32 33 34 35 36 37 38 39 40 41 42 43 44 45 46 47 48 49 50
000
ASUS41 KLWX 010810
RWRLWX

REGIONAL WEATHER ROUNDUP
NATIONAL WEATHER SERVICE BALTIMORE MD/WASHINGTON DC
400 AM EDT FRI AUG 01 2014

Note: "FAIR" indicates few or no clouds below 12,000 feet
with no significant weather and/or obstructions to visibility.
 TC=TEMPERATURE CELSIUS

 * =Non NWS site. Station does not report precipitation (e.g. rain,
    snow, etc.), thunder, or fog.

DCZ001-MDZ009-015-VAZ040>042-051-053>054-010900-
WASHINGTON METRO
  /KDAA//-FT BELVOIR

CITY           SKY/WX    TMP DP  RH WIND       PRES   REMARKS
WASHINGTON NAT CLOUDY    77  67  71 S10       30.14S
DULLES         CLOUDY    70  66  87 S5        30.13F
ANDREWS AFB    CLOUDY    70  68  92 SE8       30.14S
QUANTICO       CLOUDY    75  67  76 SW7       30.15R
COLLEGE PARK*  CLOUDY    72  68  88 CALM      30.14R
LEESBURG*      CLOUDY    68  68 100 CALM      30.14S
MANASSAS*      CLOUDY    72  70  94 CALM      30.13S
GAITHERSBURG*  MOCLDY    68  63  83 CALM      30.18S

$$

MDZ006>007-011-014-010900-
BALTIMORE METRO

CITY           SKY/WX    TMP DP  RH WIND       PRES   REMARKS
BWI AIRPORT    CLOUDY    71  66  84 SE3       30.14S
MD SCIENCE CTR   N/A     74  66  76 MISG      30.15R
MARTIN STATE   MOCLDY    73  70  88 S3        30.15S
ANNAPOLIS      CLOUDY    75  68  78 S9        30.14S
FORT MEADE*    CLOUDY    64  63  94 CALM      30.16S

$$

MDZ012-015-019>023-010900-
MARYLAND EASTERN SHORE

CITY           SKY/WX    TMP DP  RH WIND       PRES   REMARKS
OCEAN CITY     CLOUDY    74  67  78 SW7       30.17F
SALISBURY      CLOUDY    71  66  84 CALM      30.17S
BAY BRIDGE AP*   N/A     75  70  83 S6        30.15S
CAMBRIDGE*     CLOUDY    77  68  73 CALM      30.15S
EASTON*        CLOUDY    74  71  92 S5        30.19S

$$

MDZ017>025-010900-
SOUTHERN MARYLAND

CITY           SKY/WX    TMP DP  RH WIND       PRES   REMARKS
PATUXENT RIVER CLOUDY    73  65  75 S7        30.15S
ST INIGOES     CLOUDY    74  64  71 S8        30.15F
LEONARDTOWN*   CLOUDY    73  64  73 S5        30.17S

$$

MDZ003>005-010900-
NORTH CENTRAL MARYLAND

CITY           SKY/WX    TMP DP  RH WIND       PRES   REMARKS
FREDERICK*     MOCLDY    64  64 100 CALM      30.16S
HAGERSTOWN APT PTCLDY    68  60  75 CALM      30.13F
WESTMINSTER*   MOCLDY    70  66  88 SE5       30.15S

$$

MDZ501>502-010900-
WESTERN MARYLAND

CITY           SKY/WX    TMP DP  RH WIND       PRES   REMARKS
OAKLAND*       PTCLDY    59  59 100 S6        30.22S
CUMBERLAND*    PTCLDY    61  59  94 CALM      30.19R

$$

VAZ025>031-010900-
SHENANDOAH VALLEY

CITY           SKY/WX    TMP DP  RH WIND       PRES   REMARKS
WINCHESTER*    MOCLDY    63  61  94 CALM      30.13S
STAUNTON*      CLOUDY    67  62  83 CALM      30.18S

$$

WVZ021-048>050-054>055-010900-
EASTERN WEST VIRGINIA PANHANDLE

CITY           SKY/WX    TMP DP  RH WIND       PRES   REMARKS
MARTINSBURG    MOCLDY    63  59  87 CALM      30.14S FOG
PETERSBURG*    CLOUDY    60  57  88 CALM      30.16F FOG

$$

VAZ036>039-050-010900-
CENTRAL FOOTHILLS

CITY           SKY/WX    TMP DP  RH WIND       PRES   REMARKS
CHARLOTTESVILL CLOUDY    70  65  84 S6        30.14S
ORANGE*        CLOUDY    70  64  83 CALM      30.15F

$$

VAZ055>057-010900-
NORTH AND CENTRAL PIEDMONT

CITY           SKY/WX    TMP DP  RH WIND       PRES   REMARKS
FREDERICKSBRG* CLOUDY    74  67  81 CALM      30.13F
STAFFORD*      CLOUDY    70  70 100 CALM      30.18S

$$

NCZ024-NYZ072-PAZ021-071-VAZ022-071-010900-
OTHER REGIONAL OBSERVATIONS

CITY           SKY/WX    TMP DP  RH WIND       PRES   REMARKS
NEW YORK CITY  PTCLDY    72  65  78 VRB3      30.19S
PHILADELPHIA   CLOUDY    72  67  84 S7        30.17R
PITTSBURGH     PTCLDY    59  58  96 S3        30.13S
ROANOKE        LGT RAIN  67  63  87 CALM      30.19S
RICHMOND       LGT RAIN  72  67  84 SE5       30.14F
RALEIGH        CLOUDY    70  68  93 CALM      30.12F

$$

ANZ530>537-010900-
MARINE OBSERVATIONS

STATION/POSITION TIME  TEMP    WIND        PRES
                       AIR SEA DIR/SP/G
                 (UTC) (F)     (DEG/KT/KT) (MB)
THOMAS PT LIGHT  0800   76 78  180/ 14/ 15 1021.2R
BALT KEY BRIDGE  0800   76     160/  8/  8 1020.3R
COVE POINT       0800   75     210/ 12/ 17 1020.9S
LEWISETTA        0800   74 78  200/  6/  8 1020.7F
SOLOMONS ISLAND  0800      79                N/A
PINEY POINT      0800          200/ 10/ 11   N/A

$$




USA.gov is the U.S. government's official web portal to all federal, state and local government web resources and services.